Probability
0 0 0 0 0 0 0 0 0 0 0 0 0 0 0 0 0 0 0 0 0 0 0 0 0 0 0 0 0 0 0 0 0 0 0 0 0 0 0 0 0 0 0 0
0 0 0 0 0 0 0 0 0 0 0 0 0 0 0 0 0 0 0 0 0 0 0 0 0 0 0 0 0 0 0 0 0 0 0 0 0 0 0 0 0 0 0 0
0 0 0 0 0 0 0 0 0 0 0 0 0 0 0 0 0 0 0 0 0 0 0 0 0 0 0 0 0 0 0 0 0 0 0 0 0 0 0 0 0 0 0 0
0 0 0 0 0 0 0 0 0 0 0 0 0 0 0 0 0 0 0 0 0 0 0 0 0 0 0 0 0 0 0 0 0 0 0 0 0 0 0 0 0 0 0 0
0 0 0 0 0 0 0 0 0 0 0 0 0 0 0 0 0 0 0 0 0 0 0 0 0 0 0 0 0 0 0 0 0 0 0 0 0 0 0 0 0 0 0 0
0 0 0 0 0 0 0 0 0 0 0 0 0 0 0 0 0 0 0 0 0 0 0 0 0 0 0 0 0 0 0 0 0 0 0 0 0 0 0 0 0 0 0 0
0 0 0 0 0 0 0 0 0 0 0 0 0 0 0 0 0 0 0 0 0 0 0 0 0 0 0 0 0 0 0 0 0 0 0 0 0 0 0 0 0 0 0 0
0 0 0 0 0 0 0 0 0 0 0 0 0 0 0 0 0 0 0 0 0 0 0 0 0 0 0 0 0 0 0 0 0 0 0 0 0 0 0 0 0 0 0 0
0 0 0 0 0 0 0 0 0 0 0 0 0 0 0 0 0 0 0 0 0 0 0 0 0 0 0 0 0 0 0 0 0 0 0 0 0 0 0 0 0 0 0 0
0 0 0 0 0 0 0 0 0 0 0 0 0 0 0 0 0 0 0 0 0 0 0 0 0 0 0 0 0 0 0 0 0 0 0 0 0 0 0 0 0 0 0 0
0 0 0 0 0 0 0 0 0 0 0 0 0 0 0 0 0 0 0 0 0 0 0 0 0 0 0 0 0 0 0 0 0 0 0 0 0 0 0 0 0 0 0 0
0 0 0 0 0 0 0 0 0 0 0 0 0 0 0 0 0 0 0 0 0 0 0 0 0 0 0 0 0 0 0 0 0 0 0 0 0 0 0 0 0 0 0 0
0 0 0 0 0 0 0 0 0 0 0 0 0 0 0 0 0 0 0 0 0 0 0 0 0 0 0 0 0 0 0 0 0 0 0 0 0 0 0 0 0 0 0 0
0 0 0 0 0 0 0 0 0 0 0 0 0 0 0 0 0 0 0 0 0 0 0 0 0 0 0 0 0 0 0 0 0 0 0 0 0 0 0 0 0 0 0 0
0 0 0 0 0 0 0 0 0 0 0 0 0 0 0 0 0 0 0 0 0 0 0 0 0 0 0 0 0 0 0 0 0 0 0 0 0 0 0 0 0 0 0 0
0 0 0 0 0 0 0 0 0 0 0 0 0 0 0 0 0 0 0 0 0 0 0 0 0 0 0 0 0 0 0 0 0 0 0 0 0 0 0 0 0 0 0 0
0 0 0 0 0 0 0 0 0 0 0 0 0 0 0 0 0 0 0 0 0 0 0 0 0 0 0 0 0 0 0 0 0 0 0 0 0 0 0 0 0 0 0 0
0 0 0 0 0 0 0 0 0 0 0 0 0 0 0 0 0 0 0 0 0 0 0 0 0 0 0 0 0 0 0 0 0 0 0 0 0 0 0 0 0 0 0 0
0 0 0 0 0 0 0 0 0 0 0 0 0 0 0 0 0 0 0 0 0 0 0 0 0 0 0 0 0 0 0 0 0 0 0 0 0 0 0 0 0 0 0 0
0 0 0 0 0 0 0 0 0 0 0 0 0 0 0 0 0 0 0 0 0 0 0 0 0 0 0 0 0 0 0 0 0 0 0 0 0 0 0 0 0 0 0 0
0 0 0 0 0 0 0 0 0 0 0 0 0 0 0 0 0 0 0 0 0 0 0 0 0 0 0 0 0 0 0 0 0 0 0 0 0 0 0 0 0 0 0 0
0 0 0 0 0 0 0 0 0 0 0 0 0 0 0 0 0 0 0 0 0 0 0 0 0 0 0 0 0 0 0 0 0 0 0 0 0 0 0 0 0 0 0 0
0 0 0 0 0 0 0 0 0 0 0 0 0 0 0 0 0 0 0 0 0 0 0 0 0 0 0 0 0 0 0 0 0 0 0 0 0 0 0 0 0 0 0 0
0 0 0 0 0 0 0 0 0 0 0 0 0 0 0 0 0 0 0 0 0 0 0 0 0 0 0 0 0 0 0 0 0 0 0 0 0 0 0 0 0 0 0 0
0 0 0 0 0 0 0 0 0 0 0 0 0 0 0 0 0 0 0 0 0 0 0 0 0 0 0 0 0 0 0 0 0 0 0 0 0 0 0 0 0 0 0 0
0 0 0 0 0 0 0 0 0 0 0 0 0 0 0 0 0 0 0 0 0 0 0 0 0 0 0 0 0 0 0 0 0 0 0 0 0 0 0 0 0 0 0 0
0 0 0 0 0 0 0 0 0 0 0 0 0 0 0 0 0 0 0 0 0 0 0 0 0 0 0 0 0 0 0 0 0 0 0 0 0 0 0 0 0 0 0 0
Height
5584 5582 5581 5580 5580 5580 5580 5580 5579 5581 5580 5581 5581 5580 5580 5579 5579 5578 5578 5578 5577 5577 5576 5576 5575 5575 5574 5574 5574 5573 5573 5573 5573 5572 5572 5572 5572 5572 5572 5572 5572 5572 5572 5573
5577 5576 5575 5573 5574 5573 5573 5573 5572 5573 5574 5575 5574 5573 5572 5572 5571 5571 5570 5570 5569 5568 5568 5567 5566 5565 5564 5564 5564 5563 5563 5562 5562 5562 5562 5561 5561 5560 5560 5560 5559 5560 5560 5560
5569 5569 5567 5566 5568 5567 5567 5566 5566 5565 5567 5567 5566 5565 5565 5564 5564 5563 5562 5562 5561 5560 5559 5558 5557 5556 5555 5554 5554 5553 5553 5553 5552 5551 5551 5551 5550 5550 5549 5549 5548 5548 5548 5547
5562 5562 5559 5563 5561 5560 5559 5560 5559 5559 5559 5559 5559 5558 5557 5556 5556 5555 5555 5554 5553 5552 5550 5549 5548 5547 5546 5545 5545 5544 5544 5543 5542 5542 5541 5540 5540 5539 5539 5538 5537 5537 5537 5536
5555 5553 5552 5555 5554 5553 5552 5553 5553 5552 5552 5551 5551 5551 5550 5549 5548 5547 5547 5546 5544 5543 5542 5540 5539 5538 5537 5536 5536 5535 5535 5534 5533 5532 5531 5531 5530 5530 5529 5528 5527 5527 5526 5525
5549 5547 5546 5549 5548 5546 5546 5546 5546 5545 5544 5544 5544 5544 5544 5542 5541 5540 5539 5538 5537 5535 5534 5533 5532 5530 5529 5528 5528 5527 5527 5526 5525 5524 5523 5522 5522 5521 5520 5519 5518 5517 5516 5516
5543 5541 5540 5542 5541 5540 5541 5540 5538 5537 5537 5537 5537 5536 5536 5534 5533 5533 5532 5530 5529 5528 5527 5526 5524 5523 5522 5521 5520 5519 5519 5518 5517 5516 5515 5515 5514 5513 5512 5511 5510 5509 5508 5507
5538 5536 5538 5536 5534 5534 5534 5532 5531 5531 5531 5530 5530 5529 5528 5527 5526 5525 5524 5523 5522 5521 5520 5519 5517 5516 5515 5514 5513 5512 5511 5510 5510 5509 5508 5507 5506 5505 5504 5503 5502 5501 5500 5499
5533 5533 5531 5529 5528 5527 5527 5526 5525 5525 5524 5524 5523 5522 5521 5520 5519 5518 5518 5517 5516 5514 5513 5512 5511 5510 5509 5508 5506 5505 5504 5503 5503 5502 5501 5501 5500 5499 5498 5497 5495 5494 5493 5492
5527 5526 5525 5524 5523 5522 5521 5520 5519 5518 5517 5517 5516 5515 5515 5514 5513 5512 5511 5510 5509 5508 5507 5506 5505 5504 5502 5501 5500 5498 5498 5497 5496 5495 5495 5494 5493 5492 5491 5490 5489 5488 5487 5486
5521 5521 5520 5519 5517 5516 5515 5514 5512 5512 5511 5510 5509 5509 5508 5507 5506 5506 5505 5504 5503 5502 5501 5500 5498 5497 5495 5494 5493 5492 5491 5490 5490 5489 5488 5487 5487 5486 5485 5484 5483 5482 5481 5480
5516 5515 5514 5513 5512 5511 5509 5508 5507 5506 5504 5503 5503 5502 5502 5501 5500 5499 5499 5498 5497 5495 5494 5493 5492 5490 5489 5488 5487 5486 5485 5484 5483 5483 5482 5481 5480 5480 5479 5478 5477 5476 5475 5475
5510 5509 5507 5506 5505 5504 5503 5501 5501 5500 5499 5498 5497 5496 5496 5495 5494 5493 5493 5492 5490 5489 5488 5487 5485 5484 5483 5482 5480 5479 5479 5478 5477 5477 5476 5475 5475 5474 5473 5473 5472 5471 5470 5469
5505 5503 5502 5501 5499 5498 5497 5496 5495 5494 5493 5492 5491 5490 5490 5489 5488 5487 5487 5486 5484 5483 5482 5481 5479 5478 5477 5476 5475 5474 5473 5472 5472 5471 5470 5470 5469 5468 5468 5467 5467 5466 5465 5464
5499 5498 5496 5495 5494 5493 5492 5491 5490 5489 5488 5487 5486 5485 5484 5483 5483 5482 5481 5480 5479 5477 5476 5475 5474 5472 5471 5470 5469 5468 5467 5467 5466 5465 5465 5464 5464 5463 5462 5462 5461 5460 5460 5459
5494 5493 5492 5491 5490 5489 5487 5486 5485 5484 5483 5482 5481 5480 5479 5478 5477 5477 5475 5474 5473 5472 5471 5470 5468 5467 5466 5465 5464 5463 5462 5461 5461 5460 5460 5459 5458 5458 5457 5456 5456 5455 5454 5453
5490 5489 5487 5486 5485 5484 5483 5482 5481 5480 5479 5478 5477 5475 5474 5473 5473 5472 5471 5470 5468 5467 5466 5465 5464 5462 5461 5460 5459 5459 5458 5457 5456 5455 5455 5454 5453 5453 5452 5451 5450 5450 5449 5448
5485 5484 5483 5482 5481 5480 5479 5478 5477 5476 5475 5474 5473 5472 5470 5469 5468 5467 5466 5465 5464 5462 5461 5460 5459 5458 5457 5456 5455 5454 5453 5452 5451 5450 5450 5449 5448 5448 5447 5446 5445 5445 5444 5443
5481 5480 5478 5477 5477 5476 5475 5474 5473 5472 5471 5470 5469 5468 5467 5465 5464 5463 5461 5460 5459 5458 5456 5455 5454 5453 5452 5451 5450 5449 5448 5447 5446 5446 5445 5444 5444 5443 5442 5441 5441 5440 5439 5438
5477 5475 5474 5473 5472 5472 5471 5470 5469 5468 5467 5466 5465 5464 5462 5461 5459 5458 5456 5455 5454 5452 5451 5450 5449 5448 5447 5446 5445 5444 5443 5443 5442 5441 5440 5440 5439 5438 5437 5437 5436 5435 5434 5434
5473 5471 5470 5469 5468 5467 5466 5465 5465 5464 5462 5462 5461 5459 5458 5456 5455 5453 5452 5450 5449 5447 5446 5445 5444 5443 5442 5441 5440 5439 5439 5438 5437 5437 5436 5435 5434 5433 5432 5432 5431 5430 5429 5429
5468 5467 5466 5465 5464 5463 5462 5461 5460 5459 5458 5457 5456 5455 5453 5452 5450 5448 5447 5446 5444 5443 5442 5440 5439 5438 5437 5436 5435 5435 5434 5433 5432 5432 5431 5430 5429 5428 5427 5427 5426 5425 5425 5424
5464 5463 5462 5460 5460 5458 5457 5456 5455 5454 5453 5452 5451 5450 5449 5447 5446 5444 5443 5441 5440 5438 5437 5436 5434 5433 5432 5431 5431 5430 5429 5428 5428 5427 5426 5425 5424 5423 5423 5422 5421 5421 5420 5420
5460 5458 5457 5456 5455 5454 5453 5452 5451 5449 5448 5447 5446 5445 5444 5443 5442 5440 5439 5437 5436 5434 5433 5431 5430 5429 5428 5427 5426 5425 5424 5424 5423 5422 5421 5420 5419 5418 5418 5417 5417 5416 5416 5415
5455 5454 5453 5452 5450 5449 5448 5447 5446 5445 5444 5443 5442 5441 5440 5439 5438 5437 5435 5433 5432 5430 5429 5427 5426 5425 5424 5423 5422 5421 5420 5419 5418 5417 5416 5415 5414 5413 5412 5412 5411 5411 5411 5411
5451 5450 5448 5447 5446 5445 5444 5443 5442 5441 5440 5439 5438 5437 5436 5435 5434 5433 5431 5430 5428 5426 5425 5423 5422 5421 5419 5418 5417 5416 5415 5414 5413 5411 5410 5409 5408 5408 5407 5406 5406 5406 5406 5406
5446 5445 5444 5443 5442 5441 5440 5439 5438 5437 5436 5436 5435 5434 5433 5432 5430 5429 5427 5426 5424 5423 5421 5419 5418 5417 5415 5414 5413 5412 5410 5409 5408 5406 5405 5404 5403 5402 5402 5401 5401 5401 5401 5401
Wind_Speed
27 27 26 26 26 26 27 28 29 28 27 25 25 26 26 26 27 28 27 28 28 29 30 31 32 33 33 34 34 35 35 36 36 37 38 38 39 39 40 41 42 42 43 44
27 26 27 26 26 27 27 27 28 28 27 25 25 26 26 26 26 27 27 28 28 29 29 30 31 32 32 33 33 33 34 34 35 36 36 37 38 38 39 39 41 41 42 43
27 26 27 27 25 25 27 28 28 28 26 25 26 27 27 26 27 27 27 28 29 29 30 30 30 30 31 31 31 31 32 32 33 34 35 36 36 37 37 38 39 40 40 41
27 26 27 25 24 24 25 25 26 26 24 24 25 27 27 28 28 27 27 27 28 29 29 30 29 29 30 30 30 31 31 31 32 32 33 33 33 34 35 35 36 37 38 38
26 26 26 24 23 23 24 25 24 24 24 24 26 26 27 27 27 27 27 27 27 27 28 28 28 28 28 28 29 29 28 29 29 29 30 30 30 31 32 33 33 34 34 35
26 26 26 23 23 23 24 24 23 23 23 24 25 26 26 26 27 27 27 26 26 26 26 26 26 26 26 26 26 26 27 27 27 28 28 28 29 29 30 30 30 31 32 32
24 25 24 23 23 23 23 22 22 22 22 23 24 25 25 26 27 27 27 26 25 25 24 24 24 24 24 25 25 25 25 26 26 26 26 26 27 27 28 28 28 28 29 30
23 24 23 21 21 22 22 22 21 21 22 24 24 24 25 25 25 25 25 25 24 24 23 23 23 23 23 23 24 25 25 25 25 25 25 25 25 25 25 26 26 27 27 27
23 22 22 20 21 21 21 22 22 23 23 24 24 24 24 24 23 23 24 24 23 23 23 22 22 23 23 23 23 24 24 24 25 25 24 24 24 24 24 24 24 24 25 25
22 21 20 20 20 21 22 22 23 23 23 23 23 23 23 22 23 23 22 22 22 22 22 22 22 22 23 23 23 24 23 23 23 23 23 23 23 23 23 22 23 23 22 22
22 21 21 21 21 21 22 23 23 23 23 23 23 22 22 22 22 22 21 21 22 22 22 22 22 23 23 23 23 23 22 22 22 22 22 22 22 22 21 21 21 20 20 20
21 21 21 22 22 22 22 22 23 23 23 23 22 22 23 22 22 21 21 21 22 22 22 22 23 22 22 23 23 22 22 22 22 22 22 22 21 21 20 20 20 20 20 20
21 20 21 21 21 21 21 21 21 21 20 21 21 22 22 22 22 21 21 21 22 22 22 22 22 22 22 22 22 22 21 21 21 21 21 21 20 20 20 20 20 19 19 19
20 20 20 20 19 19 20 19 19 19 19 19 20 20 21 21 21 21 21 21 20 20 20 20 20 20 20 20 20 20 20 20 19 19 19 19 19 19 19 19 18 18 18 18
19 19 19 18 17 17 18 18 18 18 18 18 19 19 19 19 19 19 19 19 19 19 19 19 19 19 19 19 19 18 18 18 18 18 18 17 17 18 18 18 18 18 18 18
17 17 17 16 16 16 16 16 16 16 16 16 16 17 17 18 18 17 17 17 18 18 18 18 18 18 18 17 17 17 17 17 17 17 17 17 17 18 18 18 17 17 17 17
17 16 16 16 15 15 15 15 15 14 14 15 15 15 15 15 15 15 15 16 17 17 18 17 17 17 17 17 16 17 17 17 17 17 17 17 17 17 17 17 17 17 17 17
17 16 15 15 15 14 14 14 14 14 14 13 13 13 14 14 14 15 16 16 16 16 17 17 17 17 17 17 17 17 17 17 17 16 16 16 16 16 16 17 16 16 16 16
16 16 15 15 15 14 14 14 14 14 13 13 13 14 14 15 15 16 16 16 16 16 16 16 16 16 16 16 17 17 16 16 16 16 16 17 17 17 16 16 16 16 16 16
15 15 15 15 15 15 15 15 15 14 14 14 14 15 15 16 16 16 16 16 16 16 16 16 16 16 16 16 17 17 16 16 16 16 16 17 17 16 16 16 16 16 16 16
15 15 15 15 15 15 16 16 15 15 15 15 15 15 15 16 16 16 16 15 15 15 15 16 16 16 16 16 16 16 16 16 16 17 17 17 17 17 16 16 16 16 16 16
15 16 16 16 16 16 16 16 16 16 16 16 15 15 15 15 15 15 15 15 14 14 15 15 15 15 15 16 16 16 16 16 17 17 17 17 17 16 16 15 15 15 14 14
16 16 16 16 16 16 16 16 16 16 16 16 15 15 15 14 14 14 14 14 14 14 14 15 15 15 15 15 15 15 16 16 16 16 16 16 16 16 15 15 14 14 13 13
15 16 15 15 16 16 16 16 16 16 15 15 15 14 14 13 13 13 13 13 13 14 14 14 14 14 14 14 15 15 15 15 16 16 16 16 16 15 15 14 14 13 13 13
16 15 15 15 15 15 16 15 15 14 14 13 13 13 13 13 13 13 13 13 14 14 14 14 14 14 14 15 15 15 15 16 16 16 17 16 16 15 15 15 15 14 14 14
15 15 14 14 14 14 14 14 13 13 12 12 12 12 12 13 13 13 13 14 14 14 14 14 14 14 14 15 15 15 15 16 16 17 17 16 16 16 16 15 15 15 14 14
15 14 14 14 13 13 13 12 12 12 11 11 12 12 12 13 13 13 13 13 14 14 14 14 14 14 15 15 15 15 16 16 16 16 15 15 15 15 15 15 15 15 14 14
Wind_Direction
287 285 284 282 281 277 275 273 273 275 277 277 277 277 277 277 277 278 277 277 277 277 276 274 273 272 272 271 270 269 270 271 271 271 271 271 271 271 270 270 269 269 269 268
287 285 282 281 279 279 277 274 274 275 275 275 275 276 277 279 278 278 278 278 278 278 278 277 276 274 273 272 271 271 271 273 272 272 272 271 272 272 272 272 270 270 270 270
287 286 281 279 280 277 276 274 275 277 277 274 273 275 276 278 278 278 279 279 278 279 279 279 278 277 275 273 273 273 274 275 276 275 274 273 273 272 273 273 272 271 272 272
287 287 283 285 283 278 276 276 278 277 274 274 275 275 275 277 278 279 280 280 279 279 278 279 279 277 276 276 275 276 276 277 278 278 277 275 274 274 274 275 274 273 273 273
288 286 286 283 282 280 277 277 277 275 274 274 277 276 276 277 277 278 280 281 281 280 280 280 279 278 278 277 278 278 277 278 279 279 278 276 275 275 276 277 276 275 274 274
289 286 286 287 284 281 280 279 277 275 275 276 277 277 276 276 275 278 281 281 281 281 281 280 279 279 280 280 279 277 278 279 280 279 279 278 277 278 279 279 278 277 276 275
289 288 288 288 285 283 282 283 280 277 276 276 277 277 276 275 275 278 281 282 282 281 280 280 280 280 281 282 280 279 279 281 281 280 280 281 281 281 281 281 280 279 280 278
288 289 290 289 285 283 283 281 279 279 278 278 278 276 276 277 277 278 280 281 281 281 281 281 281 282 282 282 282 281 281 281 281 280 280 281 282 283 283 283 282 281 282 282
289 289 289 287 286 285 283 282 280 280 280 279 279 277 277 277 278 279 280 280 280 281 281 282 283 283 282 284 284 283 281 281 281 280 279 280 282 283 284 283 283 283 285 284
287 286 286 285 284 285 283 281 281 281 280 279 276 276 277 277 277 279 279 279 279 280 282 282 284 284 283 284 284 283 283 282 282 281 281 280 280 282 283 283 285 286 285 284
287 288 286 283 285 286 286 283 282 281 279 277 275 275 275 277 279 279 278 279 280 280 282 284 285 286 286 284 284 283 282 282 281 281 283 282 281 281 281 282 285 286 285 284
287 288 287 285 286 287 288 286 283 281 279 277 275 275 276 278 279 279 278 279 280 281 283 284 285 286 286 285 284 283 282 280 281 281 283 284 283 282 282 284 284 286 286 286
286 287 288 289 288 288 289 289 285 281 279 277 276 276 276 276 277 278 280 282 282 282 282 283 283 284 284 284 284 283 282 282 282 282 283 284 282 282 284 284 284 284 284 285
287 288 288 288 288 288 289 290 287 285 282 281 280 278 277 277 278 279 280 282 284 285 286 286 286 286 285 285 285 284 283 282 283 283 283 281 281 281 283 284 284 285 285 286
288 289 288 287 288 290 290 290 290 288 285 284 282 279 277 277 278 280 281 282 285 288 289 289 288 287 286 286 286 285 284 284 283 283 283 282 282 283 284 284 285 284 285 287
287 288 289 287 288 290 291 291 291 289 287 286 287 285 282 281 280 280 282 283 285 288 289 289 287 286 286 286 286 286 286 285 284 284 284 284 285 286 286 286 285 285 287 288
290 291 290 288 288 289 289 291 290 289 288 287 289 291 290 286 284 283 284 285 286 287 287 287 287 286 287 287 287 287 287 287 285 285 286 286 287 288 288 288 287 287 288 288
291 291 289 288 289 290 291 292 292 290 290 289 291 294 295 291 289 288 288 287 287 287 287 287 287 287 288 288 288 288 288 288 287 286 286 286 287 287 289 289 288 289 290 291
292 290 289 287 287 289 289 290 292 290 289 289 290 295 296 295 294 293 291 289 289 289 288 287 287 287 287 287 288 289 290 289 287 286 285 285 286 287 289 288 288 291 292 291
292 290 287 285 286 287 288 288 289 288 286 286 289 292 295 296 297 296 293 290 289 288 287 288 288 287 287 287 287 288 289 288 287 287 286 286 286 286 286 286 287 290 291 290
294 292 289 287 285 285 288 288 286 287 287 288 290 292 294 295 297 297 294 291 290 289 288 289 289 288 286 286 286 287 287 285 286 287 287 287 286 285 284 284 286 288 289 288
295 293 290 287 286 286 287 287 286 287 288 288 289 292 295 296 297 297 296 293 291 290 290 290 289 288 286 286 286 285 284 285 286 286 287 287 286 286 284 284 286 287 289 289
295 294 292 287 287 288 288 287 287 288 288 287 287 290 292 293 295 297 297 296 294 292 292 291 290 289 290 289 287 286 285 285 286 287 287 287 287 286 285 284 285 285 287 289
298 296 294 289 287 288 288 289 289 290 289 288 288 288 290 291 292 295 297 298 298 297 295 293 292 291 291 290 289 288 287 287 288 287 287 287 287 286 284 283 282 281 282 283
298 297 295 292 290 290 290 290 290 291 288 286 287 289 291 292 292 294 298 301 302 301 299 297 296 294 293 292 291 290 290 289 288 288 286 286 284 283 283 282 281 279 278 280
297 296 294 293 294 293 294 294 294 293 290 290 290 291 292 294 297 298 299 300 302 303 302 300 298 296 294 293 292 292 293 292 289 288 286 285 283 281 281 281 279 277 276 277
296 292 291 293 294 293 295 297 296 293 292 292 292 293 295 297 299 301 302 303 303 303 304 302 299 297 296 295 295 294 294 295 294 292 289 286 284 282 281 279 279 277 275 276